Regional Weather Roundup
Issued by NWS Sioux Falls, SD

Home | Current Version | Previous Version | Text Only | Print | Product List | Glossary On
Versions: 1 2 3 4 5 6 7 8 9 10 11 12 13 14 15 16 17 18 19 20 21 22 23 24 25 26 27 28 29 30 31 32 33 34 35 36 37 38 39 40 41 42 43 44 45 46 47 48 49 50
000
ASUS43 KFSD 240002
RWRFSD

WEATHER ROUNDUP FOR SE SOUTH DAKOTA/SW MINNESOTA/NW IOWA
NATIONAL WEATHER SERVICE SIOUX FALLS SD
700 PM CDT WED APR 23 2014

NOTE: "FAIR" INDICATES FEW OR NO CLOUDS BELOW 12,000 FEET WITH NO
SIGNIFICANT WEATHER AND OR OBSTRUCTIONS TO VISIBILITY.


SDZ038>040-050-052>070-240100-
SOUTHEAST SOUTH DAKOTA

CITY           SKY/WX    TMP DP  RH WIND       PRES   REMARKS
CHAMBERLAIN      N/A     73  46  38 NW8       29.52R
6HR MIN TEMP:  71; 6HR MAX TEMP:  78;

HURON          CLOUDY    67  42  40 SE18G28   29.55R
6HR MIN TEMP:  62; 6HR MAX TEMP:  70;

MADISON        CLOUDY    57  39  51 SE21G35   29.62S
MITCHELL       PTSUNNY   68  45  43 SE24G35   29.55R
6HR MIN TEMP:  66; 6HR MAX TEMP:  73;

SIOUX FALLS    PTSUNNY   59  41  51 SE23G38   29.64R
6HR MIN TEMP:  56; 6HR MAX TEMP:  65;

WINNER         MOCLDY    74  37  26 NW14      29.54R
YANKTON        MOSUNNY   64  43  45 SE21G35   29.59R
$$

MNZ071-072-080-081-089-090-097-098-240100-
SOUTHWEST MINNESOTA

CITY           SKY/WX    TMP DP  RH WIND       PRES   REMARKS
FAIRMONT       CLOUDY    45  36  70 SE28G36   29.82F
JACKSON        CLOUDY    45  36  70 SE18G26   29.81R
LUVERNE        MOSUNNY   54  37  54 SE22G33   29.69S
MARSHALL       CLOUDY    48  36  61 SE22G29   29.77S
6HR MIN TEMP:  45; 6HR MAX TEMP:  48;

MONTEVIDEO     CLOUDY    43  37  81 S23G29    29.81F
PIPESTONE      PTSUNNY   52  39  62 S24       29.69S
REDWOOD FALLS  CLOUDY    45  36  70 SE20G26   29.83R
TRACY          CLOUDY    47  38  69 SE25G33   29.77S
WINDOM         CLOUDY    45  37  76 SE24G31   29.80R
WORTHINGTON    PTSUNNY   48  34  57 SE26G33   29.76F
$$

IAZ001>003-012>014-020>022-031-032-NEZ013-014-SDZ071-240100-
NORTHWEST IOWA

CITY           SKY/WX    TMP DP  RH WIND       PRES   REMARKS
CHEROKEE       PTSUNNY   51  40  66 SE20G28   29.75S
DENISON        PTSUNNY   52  43  71 SE14G23   29.70F
ESTHERVILLE    CLOUDY    45  38  76 SE22G38   29.80R
SHELDON        MOSUNNY   52  39  62 SE29G37   29.70F
SIOUX CITY     MOSUNNY   60  42  51 SE18G29   29.65F
6HR MIN TEMP:  60; 6HR MAX TEMP:  65; 6HR PCP: TRACE;

SPENCER        CLOUDY    49  38  65 SE29G41   29.77F
6HR MIN TEMP:  48; 6HR MAX TEMP:  51;

STORM LAKE     MOSUNNY   48  39  71 SE30G40   29.73F
$$

ABBREVIATIONS USED IN REMARKS
   TC - TEMPERATURE IN CELSIUS
  WCI - WIND CHILL INDEX
   HX - HEAT INDEX
  VSB - VISIBILITY




USA.gov is the U.S. government's official web portal to all federal, state and local government web resources and services.